Date String (YYYY-MM-DD hh:mm:ss) UTC,Instrument flags,Ambient pressure (hPa),Sample flow (lpm),Bypass flow (lpm),Sample temperature (°C),Ambient temperature (°C),ASC tube jacket temperature (°C),LED temperature (°C),Box temperature (°C),Sample RH (%),Span deviation,Mass concentration (μg/m³),Mass concentration (μg/m³),Mass concentration (μg/m³)
DateTimeUTC,F1_M11,P_M11,Q1_M11,Q2_M11,T1_M11,T2_M11,T3_M11,T4_M11,T5_M11,U1_M11,ZSPAN_M11,X0_M11,X2_M11,X1_M11
2021-11-03 09:00:00,,0832.1,5.00,0.00,24.0,23.2,00.0,33.1,25.9,23.1,0000.0,0002.59,0002.03,0001.76
2021-11-03 09:01:00,,0832.1,4.99,0.00,24.0,23.2,00.0,33.1,25.9,23.1,0000.0,0002.58,0002.01,0001.76
2021-11-03 09:02:00,,0832.1,5.01,0.00,24.0,23.2,00.0,33.1,25.9,23.1,0000.0,0002.38,0001.96,0001.76
2021-11-03 09:03:00,,0832.1,5.00,0.00,24.0,23.2,00.0,33.1,25.9,23.0,0000.0,0002.39,0001.96,0001.78
2021-11-03 09:04:00,,0832.1,4.99,0.00,24.0,23.2,00.0,33.1,25.9,22.9,0000.0,0002.37,0001.94,0001.78
2021-11-03 09:05:00,,0832.1,5.02,0.00,24.0,23.2,00.0,33.1,25.9,22.9,0000.0,0002.35,0001.93,0001.77
2021-11-03 09:06:00,,0832.1,4.99,0.00,24.0,23.2,00.0,33.1,25.9,22.8,0000.0,0002.31,0001.92,0001.78
2021-11-03 09:07:00,,0832.1,5.01,0.00,24.0,23.2,00.0,33.1,25.9,22.8,0000.0,0002.28,0001.90,0001.76
2021-11-03 09:08:00,,0832.2,4.99,0.00,24.0,23.2,00.0,33.1,25.9,22.8,0000.0,0002.27,0001.89,0001.76
2021-11-03 09:09:00,,0832.1,5.01,0.00,24.0,23.2,00.0,33.1,25.9,22.9,0000.0,0002.30,0001.89,0001.76
2021-11-03 09:10:00,,0832.1,5.00,0.00,24.0,23.2,00.0,33.1,25.9,22.8,0000.0,0002.29,0001.88,0001.77
2021-11-03 09:11:00,,0832.1,5.00,0.00,24.0,23.2,00.0,33.1,25.9,22.9,0000.0,0002.27,0001.88,0001.78
2021-11-03 09:12:00,,0832.1,5.01,0.00,24.0,23.1,00.0,33.1,25.8,22.9,0000.0,0002.24,0001.87,0001.78
2021-11-03 09:13:00,,0832.0,4.98,0.00,24.0,23.1,00.0,33.1,25.8,22.9,0000.0,0002.23,0001.87,0001.78
2021-11-03 09:14:00,,0832.0,5.01,0.00,24.0,23.1,00.0,33.1,25.9,22.8,0000.0,0002.20,0001.86,0001.78
2021-11-03 09:15:00,,0832.1,5.01,0.00,24.0,23.1,00.0,33.1,25.9,22.8,0000.0,0002.19,0001.86,0001.78
2021-11-03 09:16:00,,0832.1,4.98,0.00,24.0,23.1,00.0,33.1,25.9,22.7,0000.0,0002.20,0001.85,0001.77
2021-11-03 09:17:00,,0832.1,5.00,0.00,24.0,23.1,00.0,33.1,25.9,22.7,0000.0,0002.26,0001.85,0001.76
2021-11-03 09:18:00,,0832.1,5.00,0.00,24.0,23.1,00.0,33.1,25.8,22.7,0000.0,0002.29,0001.86,0001.76
2021-11-03 09:19:00,,0832.1,5.00,0.00,24.0,23.1,00.0,33.1,25.8,22.7,0000.0,0002.33,0001.86,0001.75
2021-11-03 09:20:00,,0832.1,4.99,0.00,24.0,23.1,00.0,33.1,25.7,22.7,0000.0,0002.30,0001.85,0001.73
2021-11-03 09:21:00,,0832.1,5.00,0.00,24.0,23.1,00.0,33.1,25.8,22.7,0000.0,0002.27,0001.82,0001.71
2021-11-03 09:22:00,,0832.1,5.01,0.00,24.0,23.2,00.0,33.1,25.7,22.7,0000.0,0002.25,0001.81,0001.70
2021-11-03 09:23:00,,0832.1,4.99,0.00,24.0,23.1,00.0,33.1,25.8,22.7,0000.0,0002.23,0001.79,0001.68
2021-11-03 09:24:00,,0832.1,5.01,0.00,24.0,23.1,00.0,33.1,25.8,22.7,0000.0,0002.31,0001.80,0001.65
2021-11-03 09:25:00,,0832.1,5.00,0.00,24.0,23.1,00.0,33.1,25.8,22.7,0000.0,0002.31,0001.78,0001.62
2021-11-03 09:26:00,,0832.0,5.01,0.00,24.0,23.1,00.0,33.1,25.7,22.7,0000.0,0002.59,0001.76,0001.61
2021-11-03 09:27:00,,0832.1,5.00,0.00,24.0,23.1,00.0,33.1,25.7,22.7,0000.0,0002.56,0001.76,0001.62
2021-11-03 09:28:00,,0832.1,4.99,0.00,24.0,23.1,00.0,33.1,25.7,22.6,0000.0,0002.51,0001.75,0001.61
2021-11-03 09:29:00,,0832.1,5.01,0.00,24.0,23.1,00.0,33.0,25.7,22.6,0000.0,0002.50,0001.74,0001.60
2021-11-03 09:30:00,,0832.1,4.99,0.00,24.0,23.1,00.0,33.0,25.7,22.6,0000.0,0002.48,0001.74,0001.58
2021-11-03 09:31:00,,0832.1,5.01,0.00,24.0,23.1,00.0,33.0,25.7,22.6,0000.0,0002.42,0001.72,0001.59
2021-11-03 09:32:00,,0832.1,4.99,0.00,23.9,23.1,00.0,33.0,25.7,22.6,0000.0,0002.41,0001.72,0001.60
2021-11-03 09:33:00,,0832.1,5.00,0.00,24.0,23.1,00.0,33.0,25.7,22.5,0000.0,0002.41,0001.72,0001.61
2021-11-03 09:34:00,,0832.0,4.99,0.00,24.0,23.1,00.0,33.0,25.7,22.6,0000.0,0002.41,0001.73,0001.62
2021-11-03 09:35:00,,0832.0,5.00,0.00,24.0,23.1,00.0,33.0,25.7,22.5,0000.0,0002.35,0001.72,0001.63
2021-11-03 09:36:00,,0831.9,5.01,0.00,24.0,23.1,00.0,33.0,25.7,22.5,0000.0,0002.32,0001.71,0001.65
2021-11-03 09:37:00,,0832.0,5.00,0.00,24.0,23.1,00.0,33.0,25.7,22.6,0000.0,0002.06,0001.72,0001.66
2021-11-03 09:38:00,,0831.9,4.99,0.00,23.9,23.0,00.0,33.0,25.7,22.6,0000.0,0002.02,0001.73,0001.66
2021-11-03 09:39:00,,0831.9,5.01,0.00,24.0,23.0,00.0,33.0,25.7,22.6,0000.0,0002.03,0001.74,0001.68
2021-11-03 09:40:00,,0832.0,5.00,0.00,23.9,23.1,00.0,33.0,25.7,22.6,0000.0,0002.06,0001.75,0001.68
2021-11-03 09:41:00,,0831.9,4.99,0.00,24.0,23.1,00.0,33.0,25.7,22.6,0000.0,0002.06,0001.77,0001.70
2021-11-03 09:42:00,,0831.9,5.00,0.00,24.0,23.1,00.0,33.0,25.7,22.5,0000.0,0002.10,0001.78,0001.70
2021-11-03 09:43:00,,0831.9,5.00,0.00,24.0,23.1,00.0,33.0,25.7,22.5,0000.0,0002.11,0001.78,0001.69
2021-11-03 09:44:00,,0832.0,5.00,0.00,24.0,23.1,00.0,33.0,25.8,22.5,0000.0,0002.14,0001.79,0001.70
2021-11-03 09:45:00,,0832.0,4.99,0.00,24.0,23.1,00.0,33.0,25.8,22.5,0000.0,0002.18,0001.80,0001.69
2021-11-03 09:46:00,,0832.0,5.00,0.00,24.0,23.1,00.0,33.0,25.8,22.6,0000.0,0002.18,0001.80,0001.69
2021-11-03 09:47:00,,0832.1,5.01,0.00,23.9,23.1,00.0,33.0,25.7,22.4,0000.0,0002.31,0001.82,0001.70
2021-11-03 09:48:00,,0832.0,5.00,0.00,23.9,23.1,00.0,33.0,25.7,22.4,0000.0,0002.81,0001.84,0001.71
2021-11-03 09:49:00,,0831.9,4.98,0.00,23.9,23.1,00.0,33.0,25.7,22.6,0000.0,0003.07,0001.85,0001.72
2021-11-03 09:50:00,,0832.0,5.01,0.00,23.9,23.1,00.0,33.0,25.7,22.7,0000.0,0003.09,0001.86,0001.73
2021-11-03 09:51:00,,0832.0,5.00,0.00,23.9,23.0,00.0,33.0,25.7,22.7,0000.0,0003.10,0001.88,0001.74
2021-11-03 09:52:00,,0832.0,4.99,0.00,23.9,23.1,00.0,33.0,25.6,22.7,0000.0,0003.09,0001.88,0001.76
2021-11-03 09:53:00,,0832.0,5.00,0.00,23.9,23.1,00.0,33.0,25.6,22.7,0000.0,0003.06,0001.89,0001.77
2021-11-03 09:54:00,,0832.0,5.01,0.00,23.9,23.1,00.0,33.0,25.7,22.7,0000.0,0003.10,0001.91,0001.78
2021-11-03 09:55:00,,0832.0,4.99,0.00,23.9,23.0,00.0,33.0,25.7,22.7,0000.0,0003.11,0001.91,0001.78
2021-11-03 09:56:00,,0832.0,5.00,0.00,23.9,23.0,00.0,33.0,25.6,22.8,0000.0,0003.09,0001.92,0001.79
2021-11-03 09:57:00,,0832.0,5.01,0.00,23.9,23.0,00.0,33.0,25.6,22.9,0000.0,0003.06,0001.91,0001.80
2021-11-03 09:58:00,,0832.0,5.00,0.00,23.9,23.0,00.0,33.0,25.6,22.9,0000.0,0002.98,0001.92,0001.81
2021-11-03 09:59:00,,0832.0,4.99,0.00,23.9,23.0,00.0,33.0,25.6,22.9,0000.0,0002.51,0001.93,0001.82
